STARLINK-36069, 66806

Orbit data source: Space-Track

STARLINK-36069, 66806 is a payload satellite owned by SpaceX/Seattle (US) in LEO that was launched on Mon, 01 Dec 2025 UTC via an FALCON 9 launch vehicle from the Air Force Eastern Test Range (AFETR). Payload-class satellites include a variety of spacecraft equipped with specific instruments for various scientific and technological missions. These include communications satellites like Starlink; space stations such as the ISS; scientific satellites like the Hubble; Earth observation satellites from companies like Planet Labs, Umbra, and HawkEye 360; GPS; miniature CubeSats for education and research; and military/defense satellites.

Loading next visibility...
Identifier
66806, 2025-278R
Orbit
LEO
Country
Flag of USUS
Related business
Manufacturer
SpaceX/Seattle
Mission
Operational Commercial Communications
Bus & Motor
STARLINK V2MO, Unknown motor
Mass
575 kg wet, ~530 kg dry
Launch date (UTC)
2025-12-01 (7 months ago)
Launch vehicle
FALCON 9
Launch site
Air Force Eastern Test Range (AFETR)
Object type
Payload
Rocket body
Debris
Shape & HBR
Box + 2 Pan, 17.7 m
Radar Cross Section
36.964 m², Large (>1 m²)

Expand to show TLE details & history
Last TLE update: 20 hours ago

TLE from 20 hours ago
0 STARLINK-36069
1 66806U 25278R   26171.00002315 -.00019615  00000-0 -70496-3 0  9991
2 66806  43.0002 256.9190 0001476 269.3926  36.8631 15.27588170  5763
Epoch: 2026-06-20T00:00Z
TLE epoch observation values (Epoch: 2026-06-20T00:00:02.000Z)
Latitude
-33.53497°
Longitude
-56.2854°
Altitude
491.625 km
Speed
7.62 km/s
True Right ascension
14h 07m 46s
True Declination
-33° 22' 14"
Sunlit
Object was in full shadow at epoch
Visualization orbit readout
Latitude
Unknown
Longitude
Unknown
Altitude
Unknown
Speed
Unknown
Apparent Right ascension
Unknown
Apparent Declination
Unknown
Sunlit
N/A
Visualization observer readout
Local Sidereal Time
07:18:17
Azimuth
Unknown
Elevation
Unknown
Doppler factor
Unknown
Orbital elements
Apogee altitude
485.983 km
Perigee altitude
483.957 km
Semi-major axis
6,863.107 km
Eccentricity
0.00015
Inclination
43.0002°
RAAN
256.919°
Arg. of periapsis
269.3926°
True anomaly
36.87325°
Mean anomaly
36.8631°
Eccentric anomaly
36.86817°
Mean motion
3.81735 °/min
Orbital period
94.31 mins
BSTAR
-0.00070496
Loading maneuver chart data...
Computing Atmospheric mass density...
Loading historical data...
Loading historical data...
Loading historical data...
Loading historical data...
Loading historical data...
Loading historical data...
Loading historical data...

Documentation

Showing up to 5 results
|